Home   Weather   Firenze   Past weeks

Flag for Italy Past Weather in Firenze, Italy — Yesterday and Last 2 Weeks

Now
32 °F

Fog.


Feels Like: 32 °F
Forecast: 45 / 54 °F
Wind: No wind

Location: Florence / Peretola

Current Time: Dec 10, 2016 at 4:17:14 am

Latest Report: Dec 10, 2016 at 3:20 am


Visibility: 2 mi

Pressure: 30.42 "Hg

Humidity: 100%

Dew Point: 32 °F

Location of FirenzeLocation

Past Weather in Firenze — Graph

°F

Firenze Temperature Yesterday

Maximum temperature yesterday: 48 °F (at 2:20 pm)
Minimum temperature yesterday: 28 °F (at 2:50 am)
Average temperature yesterday: 37 °F

High & Low Weather Summary for the Past Weeks

 TemperatureHumidityPressure
High64 °F (Nov 25, 3:50 pm)100% (Nov 26, 1:20 am)30.63 "Hg (Nov 26, 1:20 am)
Low25 °F (Dec 1, 3:50 am)31% (Nov 29, 3:20 pm)29.83 "Hg (Nov 28, 4:50 am)
Average45 °F79%30.24 "Hg
* Reported Nov 25 2:20 am — Dec 10 2:50 am, Firenze, Weather by CustomWeather, © 2016

Note: Actual official high and low records may vary slightly from our data, if they occured in-between our weather recording intervals... More about our weather records

Advertising

Firenze Weather History for the Previous 24 Hours

Scroll right to see more
 ConditionsComfort  
Time TempWeatherWind HumidityBarometerVisibility
2:50 am
Sat, Dec 10
34 °FFog.2 mph93%30.45 "Hg2 mi
2:20 am34 °FFog.1 mph100%30.45 "Hg2 mi
1:50 am34 °FFog.2 mph93%30.45 "Hg2 mi
1:20 am34 °FFog.1 mph100%30.45 "Hg2 mi
12:50 am36 °FFog.No wind100%30.45 "Hg2 mi
12:20 am36 °FFog.1 mph100%30.45 "Hg3 mi
11:50 pm
Fri, Dec 9
37 °FFog.1 mph93%30.45 "Hg3 mi
11:20 pm36 °FPassing clouds.2 mph93%30.48 "Hg4 mi
10:50 pm37 °FPassing clouds.2 mph93%30.45 "Hg4 mi
10:20 pm37 °FPassing clouds.1 mph93%30.45 "Hg4 mi
9:50 pm37 °FPassing clouds.1 mph93%30.45 "Hg4 mi
9:20 pm37 °FPassing clouds.1 mph93%30.45 "Hg4 mi
8:50 pm39 °FPassing clouds.1 mph93%30.48 "Hg4 mi
8:20 pm41 °FPassing clouds.2 mph87%30.48 "Hg4 mi
7:50 pm39 °FPassing clouds.2 mph93%30.48 "Hg4 mi
7:20 pm39 °FPassing clouds.1 mph87%30.45 "Hg4 mi
6:50 pm39 °FPassing clouds.No wind87%30.45 "Hg4 mi
6:20 pm41 °FPassing clouds.No wind81%30.48 "Hg4 mi
5:50 pm43 °FPassing clouds.1 mph81%30.48 "Hg5 mi
5:20 pm45 °FPassing clouds.2 mph76%30.45 "Hg5 mi
4:50 pm46 °FPassing clouds.2 mph71%30.45 "HgN/A
4:20 pm46 °FPartly sunny.1 mph66%30.45 "HgN/A
3:50 pm48 °FPartly sunny.1 mph62%30.48 "HgN/A
3:20 pm48 °FPartly sunny.1 mph62%30.48 "HgN/A
2:50 pm48 °FPartly sunny.No wind62%30.48 "HgN/A
2:20 pm48 °FPartly sunny.1 mph62%30.48 "HgN/A
1:50 pm46 °FPartly sunny.1 mph66%30.48 "HgN/A
1:20 pm45 °FPartly sunny.1 mph71%30.51 "HgN/A
12:50 pm45 °FPartly sunny.1 mph66%30.51 "HgN/A
12:20 pm43 °FPartly sunny.2 mph71%30.51 "HgN/A
11:50 am43 °FPartly sunny.3 mph71%30.54 "HgN/A
11:20 am41 °FPartly sunny.No wind76%30.54 "HgN/A
10:50 am39 °FPartly sunny.2 mph81%30.54 "HgN/A
10:20 am39 °FPartly sunny.1 mph81%30.54 "HgN/A
9:50 am37 °FPartly sunny.No wind87%30.54 "HgN/A
9:20 am36 °FPartly sunny.1 mph93%30.54 "HgN/A
8:50 am34 °FPartly sunny.2 mph93%30.54 "HgN/A
8:20 am32 °FPartly sunny.2 mph100%30.54 "HgN/A
7:50 am30 °FPartly sunny.No wind100%30.54 "HgN/A
7:20 am30 °FPassing clouds.1 mph93%30.54 "HgN/A
6:50 am28 °FPassing clouds.1 mph100%30.54 "HgN/A
6:20 am28 °FClear.No wind93%30.54 "Hg10 mi
5:50 am28 °FClear.2 mph93%30.54 "Hg10 mi
5:20 am28 °FClear.2 mph100%30.54 "Hg10 mi
4:50 am28 °FClear.1 mph93%30.54 "Hg10 mi
4:20 am30 °FClear.No wind100%30.54 "Hg10 mi
Weather by CustomWeather, © 2016

See weather overviewHow to use our weather pages